Regional Weather Roundup
Issued by NWS

Home | Current Version | Previous Version | Graphics & Text | Print | Product List | Glossary Off
Versions: 1 2 3 4 5 6 7 8 9 10 11 12 13 14 15 16 17 18 19 20 21 22 23 24 25 26 27 28 29 30 31 32 33 34 35 36 37 38 39 40 41 42 43 44 45 46 47 48 49 50

000
ASUS43 KDMX 272208
RWRIA

WEATHER ROUNDUP FOR IOWA
NATIONAL WEATHER SERVICE DES MOINES IA
500 PM CDT SAT AUG 27 2016

NOTE: "FAIR" INDICATES FEW OR NO CLOUDS BELOW 12,000 FEET WITH NO
SIGNIFICANT WEATHER AND/OR OBSTRUCTIONS TO VISIBILITY.

* - THESE STATIONS ARE NOT NWS STATIONS...THUS NOT UNDER NWS
QUALITY CONTROL.  THEY ALSO DO NOT REPORT WEATHER SUCH
AS PRECIPITATION OR FOG.

IAZ001>003-012>014-020>022-031>034-043>046-272300-
   NORTHWEST IOWA

CITY           SKY/WX    TMP DP  RH WIND       PRES   REMARKS
CARROLL *      MOSUNNY   79  66  65 VRB5      30.00F HX  81
CHEROKEE *     SUNNY     76  66  69 SW6       30.00S
DENISON *      PTSUNNY   79  66  65 SW9       29.98S HX  81
LE MARS *      MOSUNNY   77  64  65 S6        29.99F
ORANGE CITY *  SUNNY     75  64  69 S7        30.00S
SHELDON *      PTSUNNY   73  64  73 S8        29.99F
SIOUX CITY     SUNNY     79  66  64 S7        29.98F HX  81
SPENCER        MOSUNNY   73  62  68 SW7       30.00F
STORM LAKE *   MOSUNNY   77  66  69 CALM      30.01S
$$

IAZ055>058-069>071-079>083-090>094-272300-
   SOUTHWEST IOWA

CITY           SKY/WX    TMP DP  RH WIND       PRES   REMARKS
ATLANTIC *     MOSUNNY   79  68  69 S8        30.00S HX  81
AUDUBON *      SUNNY     79  70  73 CALM      30.02S HX  81
CLARINDA *       N/A     82  70  65 MISG      30.02S HX  86
COUNCIL BLFS * SUNNY     81  66  61 SW7       29.99F HX  83
CRESTON *      MOSUNNY   79  68  69 W6        30.03S HX  81
HARLAN  *      PTSUNNY   79  68  69 SW5       30.03S HX  81
LAMONI         MOSUNNY   82  69  64 W6        30.01F HX  85
RED OAK *      MOSUNNY   81  68  65 S5        30.00S HX  83
SHENANDOAH *   CLOUDY    82 -29   1 SW5       30.00S
$$

IAZ047>049-059>061-072>074-084-272300-
   CENTRAL IOWA

CITY           SKY/WX    TMP DP  RH WIND       PRES   REMARKS
AMES           PTSUNNY   77  69  76 VRB5      30.01S
ANKENY *         N/A    N/A N/A N/A MISG        N/A
BOONE *        CLOUDY    75  66  73 VRB5      30.01S
CHARITON *       N/A     81  68  65 MISG      30.01R HX  83
DES MOINES     PTSUNNY   81  69  67 S3        29.99F HX  84
GRINNELL*      MOSUNNY   79  68  69 SW3       30.02S HX  82
KNOXVILLE *    MOSUNNY   81  70  69 CALM      29.99S HX  84
MARSHALLTOWN   PTSUNNY   77  70  79 SW3       30.00F
NEWTON *       MOSUNNY   79  70  73 VRB5      30.00S HX  81
PERRY *          N/A     78  70  76 CALM      30.01S HX  80
$$

IAZ004>006-015-016-023>025-035-036-272300-
   NORTH CENTRAL IOWA

CITY           SKY/WX    TMP DP  RH WIND       PRES   REMARKS
ALGONA *       MOSUNNY   75  66  73 SW6       30.00F
ESTHERVILLE    MOSUNNY   73  65  75 SW9       30.00F
FORT DODGE *   MOSUNNY   77  66  69 SW6       30.01F
MASON CITY     MOSUNNY   75  65  70 W8        30.02F
FOREST CITY *    N/A    N/A N/A N/A MISG        N/A
WEBSTER CITY * MOSUNNY   75  70  83 S10       29.99F
IOWA FALLS *   CLOUDY    76  68  75 W6        30.03R
$$

IAZ007>011-017>019-026>030-037>042-050>054-066-272300-
   NORTHEAST IOWA

CITY           SKY/WX    TMP DP  RH WIND       PRES   REMARKS
CEDAR RAPIDS   MOSUNNY   79  70  74 W7        30.00S HX  82
CHARLES CITY * MOSUNNY   73  68  83 SW7       30.01F
CLINTON *      MOSUNNY   82  71  69 W7        30.01S HX  86
DECORAH *      CLOUDY    72  68  88 CALM      30.01S
DUBUQUE        PTSUNNY   78  69  73 W7        30.03R HX  80
MONTICELLO *   PTSUNNY   79  70  73 SW7G13    30.01R HX  81
OELWEIN *      PTSUNNY   75  68  78 SW7       30.02S
WATERLOO       PTSUNNY   75  66  73 W6        30.00S
$$

IAZ064-065-067-068-078-272300-
   EAST CENTRAL IOWA

CITY           SKY/WX    TMP DP  RH WIND       PRES   REMARKS
DAVENPORT      CLOUDY    83  69  62 SW8       30.01S HX  86
IOWA CITY      PTSUNNY   82  69  64 W8        30.01S HX  85
MT. PLEASANT * PTSUNNY   85  73  65 S6        30.00S HX  92
MUSCATINE *    MOSUNNY   84  70  61 SW5       30.00S HX  88
QUAD CITIES    MOSUNNY   83  70  64 SW7       29.99S HX  87
$$

IAZ062-063-075>077-085>089-095>099-272300-
   SOUTHEAST IOWA

CITY           SKY/WX    TMP DP  RH WIND       PRES   REMARKS
BURLINGTON     CLOUDY    84  74  71 S8        30.00S HX  91
FAIRFIELD *    PTSUNNY   84  70  61 SW7       30.00R HX  88
FORT MADISON *   N/A     84  73  70 S6        30.02R HX  91
KEOKUK *       MOSUNNY   84  73  70 S9        30.00R HX  91
OSKALOOSA *    PTSUNNY   82  70  66 W3        30.00S HX  85
CENTERVILLE *    N/A     82  70  65 CALM      30.03S HX  86
OTTUMWA        MOSUNNY   82  68  62 SW8       29.98S HX  85
WASHINGTON *   MOSUNNY   84  73  70 S5        30.01S HX  91
$$

ABBREVIATIONS USED IN REMARKS
   TC - TEMPERATURES IN CELSIUS
  WCI - WIND CHILL INDEX
   HX - HEAT INDEX
  VSB - VISIBILITY
$$





USA.gov is the U.S. government's official web portal to all federal, state and local government web resources and services.